Wind_Speed
58 60 59 54 52 51 52 52 52 49 48 51 53 52 49 49 49 46 44 42 40 38 37 37 35 34 33 32 31 30 30 30 30 30 30 30 31 32 32 33 33 34 35 35
60 61 54 51 52 52 52 53 52 51 50 53 54 53 52 51 51 48 47 45 43 41 40 39 38 37 36 35 34 33 33 32 32 32 33 33 33 33 34 34 35 36 36 36
59 54 51 53 54 54 54 53 51 50 50 52 54 55 53 52 52 50 48 47 45 44 42 42 41 40 39 38 37 36 36 35 35 35 35 35 35 35 35 35 36 36 36 36
58 55 54 54 55 54 54 49 49 50 51 52 54 57 54 52 52 51 49 48 46 45 44 44 43 42 41 40 39 39 38 38 37 37 37 37 36 36 36 37 38 38 37 37
59 57 57 56 53 52 51 47 48 49 51 53 54 58 57 52 52 50 49 48 47 46 45 45 44 44 43 42 41 40 40 39 38 38 38 38 38 38 39 39 39 38 38 38
58 56 56 55 52 51 49 48 49 50 52 56 54 57 60 53 50 47 46 46 46 46 46 46 45 45 44 43 43 42 41 40 39 39 39 39 39 38 39 39 39 39 39 39
58 59 57 56 55 53 53 52 52 53 55 57 52 56 60 52 47 45 44 44 45 45 45 45 45 44 43 43 42 42 42 41 41 40 40 39 39 40 39 39 39 39 39 38
59 60 59 58 57 56 55 55 56 55 55 54 53 55 55 49 45 44 43 43 43 43 43 43 43 43 43 43 42 42 41 41 41 40 40 40 40 40 40 40 39 39 39 39
57 57 56 57 56 56 56 55 52 53 54 54 54 52 49 47 44 42 41 41 42 42 42 42 42 42 42 42 42 42 41 41 41 40 40 40 40 40 40 40 40 40 40 40
53 55 56 55 56 57 56 53 53 54 54 54 53 51 47 43 40 39 38 38 39 40 41 41 41 41 41 41 41 41 41 41 41 40 40 40 40 40 40 40 39 39 40 40
54 54 54 56 58 57 56 56 55 54 54 53 52 49 42 39 38 37 36 36 36 37 37 38 39 40 40 40 40 40 40 40 40 40 40 40 39 39 40 39 39 40 40 40
54 54 55 55 54 54 55 56 56 55 54 53 51 47 41 39 38 36 35 35 35 35 35 36 37 37 38 39 39 39 39 39 39 39 39 39 39 39 39 39 39 39 39 39
54 55 54 55 57 55 56 55 54 54 53 52 50 45 40 40 38 37 36 34 33 34 34 35 35 35 36 37 38 38 38 38 38 38 38 38 38 38 38 39 39 38 39 39
54 56 57 55 55 56 56 56 55 55 55 53 49 43 41 40 39 38 37 35 34 33 33 33 33 34 35 35 36 36 37 37 37 37 37 37 37 38 38 38 38 38 39 39
54 54 56 55 54 55 55 55 55 55 53 52 46 44 40 39 38 38 37 36 36 34 33 33 33 34 34 34 34 35 35 36 36 36 36 36 37 37 38 37 38 38 38 38
52 55 55 55 55 56 56 55 53 52 51 49 47 45 40 39 39 39 39 38 37 35 34 33 33 33 34 34 34 34 34 34 35 35 35 36 36 37 37 37 37 37 37 37
48 53 55 56 56 57 57 54 53 51 49 48 47 41 40 41 41 40 39 40 39 37 36 35 34 33 33 33 34 34 34 34 34 34 35 35 36 36 36 36 36 36 36 36
47 49 53 56 56 58 53 50 51 51 49 47 45 42 42 41 40 40 40 40 39 38 37 36 35 34 33 33 33 34 34 34 34 34 35 35 35 35 35 35 35 35 36 36
44 46 49 53 55 55 52 49 47 49 49 46 44 43 42 41 42 42 41 40 39 37 36 36 36 35 34 33 33 34 34 34 34 34 34 34 34 34 34 34 35 35 35 35
40 43 47 50 51 53 50 47 44 46 48 45 45 44 44 44 44 40 38 39 38 38 37 36 36 35 34 33 33 34 34 34 33 33 33 33 34 34 34 34 34 34 35 36
38 38 42 46 47 48 48 49 47 47 42 40 42 44 44 45 42 39 39 39 39 38 38 37 35 35 34 34 34 34 33 33 33 33 33 33 33 34 34 34 34 35 35 36
36 37 38 41 43 43 45 47 46 42 41 39 39 41 43 43 42 41 40 40 39 38 38 37 36 35 34 34 34 34 34 33 33 33 33 33 34 34 34 34 34 35 36 36
37 36 35 38 41 40 42 43 42 42 42 41 39 39 40 40 40 39 39 39 38 38 37 37 35 34 34 33 33 34 34 34 34 34 34 34 34 34 34 34 35 36 36 37
37 36 37 39 41 40 39 39 39 40 41 41 40 40 39 38 37 37 37 36 36 37 37 36 35 35 33 33 33 33 33 34 34 34 34 35 35 35 35 35 36 36 36 37
38 38 37 39 41 41 39 38 37 38 40 41 40 39 39 39 37 36 35 36 36 36 35 35 35 35 34 32 32 32 33 33 34 34 34 34 34 34 35 35 35 36 36 37
38 38 37 39 40 41 40 40 40 39 39 41 40 39 39 38 38 37 36 36 36 35 34 34 34 33 33 33 32 32 33 33 33 33 33 33 33 34 34 35 35 36 37 38
Wind_Direction
228 230 230 232 234 234 234 235 235 233 234 236 237 236 233 235 237 237 238 240 241 243 244 246 248 250 251 253 255 257 259 262 264 267 269 271 274 276 279 282 285 286 286 287
229 230 231 231 232 233 233 234 234 234 234 236 236 236 234 235 237 238 239 240 242 243 244 246 249 251 253 255 256 258 260 263 265 267 269 271 274 277 279 282 283 284 285 285
232 231 230 230 231 232 232 233 234 236 236 238 238 237 235 235 237 238 240 241 243 244 245 247 249 251 252 255 257 259 260 262 265 267 269 271 274 276 278 279 280 282 283 284
229 226 227 228 229 231 233 234 236 237 236 237 239 240 235 236 237 239 240 242 244 246 247 248 249 251 253 255 256 258 259 261 264 266 268 270 273 275 276 277 279 281 282 282
227 226 226 227 228 230 232 233 236 237 238 238 237 242 236 236 238 239 242 243 244 246 247 249 251 252 253 254 256 257 259 260 263 265 268 270 272 273 274 275 277 278 279 279
226 225 226 227 227 228 229 231 233 235 237 238 236 241 240 235 238 240 243 244 245 246 247 249 250 252 253 253 255 256 258 260 262 265 267 268 270 271 272 273 275 276 277 278
224 224 224 224 224 224 225 226 228 232 234 238 237 241 243 238 238 240 242 244 246 247 248 249 250 251 252 253 255 256 258 259 261 263 265 266 268 269 270 271 273 274 276 276
225 224 223 224 224 226 227 228 229 232 236 240 239 241 243 243 241 241 242 243 245 247 248 249 250 251 252 253 254 255 257 258 260 261 263 265 266 267 268 270 271 272 274 275
225 226 224 225 226 226 226 229 231 234 238 240 241 241 241 243 242 241 242 243 244 246 248 248 250 251 252 253 253 254 256 257 258 260 262 263 264 265 267 268 269 271 272 273
225 227 224 224 225 226 227 229 230 231 234 239 241 241 240 241 244 244 243 243 244 245 246 248 249 250 251 252 253 253 254 256 258 259 260 261 262 264 265 266 267 269 270 272
223 225 224 223 224 225 225 224 227 231 235 237 240 240 239 242 243 244 244 243 243 244 245 247 248 249 250 252 253 254 255 256 257 258 259 260 261 262 264 265 267 268 270 271
221 223 223 224 224 225 228 228 229 230 234 238 240 240 238 240 242 244 244 244 244 244 244 245 246 248 249 250 252 253 255 256 257 257 258 259 260 262 263 265 266 267 269 271
218 222 222 222 222 222 223 225 228 231 234 237 238 237 238 241 243 244 245 246 246 245 244 245 245 247 248 250 251 252 254 255 256 256 258 259 260 262 263 264 265 266 268 269
218 221 222 223 223 223 223 223 225 227 230 234 235 235 235 239 241 243 245 245 245 244 243 244 244 245 247 249 250 252 253 255 256 257 257 259 260 261 262 262 264 265 267 268
219 222 224 224 223 224 225 226 226 228 231 234 235 235 234 237 241 242 243 243 243 242 242 242 242 243 246 248 250 252 253 255 256 257 258 259 260 260 262 263 264 265 266 267
220 222 223 224 224 224 224 223 225 228 229 232 233 232 233 236 238 239 240 241 242 243 242 242 242 244 246 248 250 251 253 254 255 256 258 259 260 261 262 263 264 265 265 267
221 222 223 224 224 225 223 222 225 227 228 230 231 230 231 233 235 237 239 241 242 243 243 243 243 245 247 249 250 251 251 253 255 256 258 259 261 262 262 263 264 265 265 267
220 221 223 223 223 226 223 224 226 227 227 229 229 228 229 231 234 236 238 240 241 242 242 243 243 244 246 249 250 251 252 253 255 256 258 260 260 261 262 263 264 264 265 266
221 222 223 224 225 225 223 223 225 225 225 227 228 228 230 231 234 235 237 239 241 242 242 243 243 244 245 248 249 251 252 253 255 257 258 259 259 259 260 262 263 264 265 266
221 224 224 223 225 225 223 223 225 227 227 226 229 230 231 232 234 234 238 239 240 241 242 243 244 244 246 247 249 250 252 252 254 255 256 257 258 259 260 262 263 265 266 268
220 220 224 224 225 223 223 225 226 228 225 226 230 231 232 233 235 233 234 237 237 238 240 243 244 244 246 247 249 250 252 253 253 254 255 256 258 259 261 262 264 267 269 271
219 218 219 221 222 219 221 224 225 227 224 225 227 229 231 232 232 233 234 236 237 238 240 242 244 244 246 247 249 250 252 253 253 254 255 257 259 260 262 264 266 269 270 273
220 219 217 217 217 217 221 223 223 224 225 225 226 228 230 231 231 233 235 236 237 238 239 241 243 244 245 246 248 249 251 252 253 254 255 257 259 261 263 266 267 270 272 274
221 220 220 218 214 215 218 220 221 222 222 224 227 227 228 229 230 232 235 236 236 237 239 240 241 242 244 245 246 248 250 251 253 255 257 257 259 262 264 266 269 271 273 275
223 221 222 221 217 217 218 220 221 222 222 223 224 225 226 229 231 232 234 235 236 237 238 239 240 242 244 245 247 248 250 251 253 256 258 259 260 262 265 268 270 273 274 276
223 222 222 220 218 220 219 220 222 223 223 223 222 222 224 227 229 232 235 236 237 237 237 237 238 241 243 245 247 249 250 252 254 257 258 259 261 264 266 269 271 274 276 279
Height
5673 5678 5686 5699 5706 5714 5718 5722 5728 5736 5740 5741 5745 5751 5758 5761 5765 5770 5775 5779 5783 5788 5791 5793 5796 5798 5801 5803 5805 5807 5809 5810 5810 5811 5812 5812 5812 5812 5812 5811 5810 5809 5807 5806
5659 5667 5684 5691 5694 5699 5704 5710 5717 5723 5727 5730 5733 5739 5746 5751 5756 5762 5767 5771 5775 5779 5782 5785 5788 5790 5793 5795 5797 5799 5801 5802 5803 5804 5804 5804 5804 5804 5804 5803 5802 5801 5799 5798
5649 5666 5674 5676 5680 5686 5692 5700 5708 5713 5717 5718 5722 5726 5735 5742 5746 5752 5757 5762 5766 5770 5774 5777 5779 5782 5784 5787 5789 5791 5792 5794 5794 5795 5795 5796 5796 5796 5796 5795 5793 5792 5791 5790
5637 5650 5656 5661 5668 5676 5683 5694 5698 5701 5703 5707 5711 5713 5725 5731 5736 5742 5748 5753 5757 5761 5764 5767 5770 5773 5776 5778 5780 5782 5783 5785 5786 5786 5787 5787 5788 5788 5787 5786 5785 5784 5783 5782
5626 5637 5643 5649 5660 5667 5676 5683 5686 5689 5691 5694 5698 5700 5712 5720 5726 5733 5739 5743 5747 5751 5754 5757 5760 5763 5766 5768 5770 5772 5774 5775 5776 5777 5778 5778 5779 5779 5778 5777 5776 5775 5774 5774
5616 5624 5631 5641 5651 5657 5663 5668 5672 5674 5677 5679 5690 5691 5697 5711 5719 5725 5730 5733 5736 5740 5744 5747 5750 5753 5756 5758 5760 5762 5764 5766 5767 5767 5768 5769 5769 5769 5768 5768 5767 5766 5766 5765
5601 5609 5618 5628 5635 5642 5647 5654 5658 5660 5661 5668 5681 5679 5686 5702 5711 5716 5720 5722 5725 5729 5733 5736 5739 5742 5745 5748 5750 5752 5754 5756 5757 5758 5758 5759 5759 5759 5759 5759 5758 5757 5757 5756
5588 5596 5606 5614 5622 5630 5636 5642 5647 5651 5655 5663 5667 5668 5681 5691 5699 5704 5709 5712 5715 5719 5722 5726 5729 5731 5734 5737 5739 5742 5744 5745 5746 5747 5748 5749 5749 5749 5749 5749 5749 5748 5748 5747
5577 5588 5598 5605 5614 5620 5625 5629 5639 5643 5646 5650 5653 5662 5672 5679 5686 5693 5698 5702 5705 5708 5712 5715 5718 5721 5723 5726 5729 5731 5733 5735 5736 5737 5738 5738 5739 5739 5739 5739 5739 5739 5738 5737
5566 5576 5585 5594 5599 5605 5614 5622 5625 5628 5633 5637 5643 5651 5663 5672 5677 5683 5687 5691 5694 5698 5701 5704 5707 5710 5713 5715 5718 5720 5722 5724 5726 5727 5727 5728 5729 5729 5729 5729 5729 5729 5729 5728
5554 5562 5571 5578 5583 5593 5601 5607 5611 5618 5623 5628 5634 5645 5657 5663 5667 5672 5677 5680 5684 5687 5691 5694 5696 5699 5702 5704 5707 5709 5711 5713 5715 5716 5717 5718 5719 5719 5719 5719 5720 5719 5719 5718
5542 5549 5557 5566 5576 5583 5589 5595 5602 5608 5613 5619 5625 5638 5647 5653 5657 5661 5665 5670 5673 5677 5680 5683 5686 5689 5691 5694 5696 5698 5700 5702 5704 5705 5706 5707 5708 5709 5709 5710 5710 5709 5709 5708
5529 5536 5544 5552 5561 5568 5574 5582 5590 5598 5603 5608 5615 5630 5638 5642 5646 5651 5655 5659 5663 5667 5670 5673 5676 5679 5681 5683 5686 5688 5690 5692 5693 5695 5696 5697 5698 5699 5700 5700 5700 5699 5699 5699
5517 5523 5532 5540 5548 5557 5563 5570 5578 5584 5589 5597 5607 5620 5628 5632 5636 5641 5645 5649 5653 5657 5660 5664 5666 5669 5671 5673 5675 5678 5680 5681 5683 5684 5686 5687 5688 5689 5689 5690 5690 5690 5689 5689
5505 5512 5520 5529 5538 5544 5552 5560 5567 5573 5582 5590 5601 5610 5619 5623 5627 5631 5635 5638 5642 5647 5651 5654 5657 5659 5661 5663 5666 5668 5670 5671 5673 5675 5676 5677 5678 5679 5679 5680 5680 5680 5679 5679
5494 5502 5509 5518 5526 5532 5539 5549 5556 5564 5573 5581 5590 5599 5609 5612 5615 5620 5624 5628 5632 5637 5641 5644 5647 5649 5652 5654 5656 5658 5660 5662 5663 5665 5666 5667 5668 5669 5669 5670 5670 5670 5670 5669
5484 5492 5499 5507 5515 5520 5527 5540 5548 5556 5564 5571 5579 5592 5597 5601 5604 5609 5614 5617 5622 5627 5631 5634 5637 5640 5642 5644 5646 5648 5650 5652 5654 5655 5656 5657 5658 5659 5659 5660 5660 5660 5660 5660
5475 5482 5488 5496 5503 5508 5525 5533 5539 5546 5555 5562 5571 5579 5584 5590 5594 5598 5602 5607 5611 5616 5620 5624 5627 5630 5633 5635 5637 5639 5640 5642 5644 5645 5647 5648 5649 5649 5650 5650 5650 5650 5650 5650
5466 5472 5479 5486 5491 5501 5515 5523 5530 5536 5544 5552 5560 5567 5573 5577 5580 5586 5592 5596 5601 5605 5610 5614 5617 5620 5623 5625 5627 5629 5631 5633 5634 5636 5637 5638 5639 5639 5640 5640 5641 5641 5640 5640
5458 5463 5470 5477 5483 5493 5509 5516 5520 5526 5532 5542 5548 5555 5560 5564 5569 5579 5583 5586 5591 5595 5599 5603 5607 5610 5613 5615 5618 5620 5621 5623 5625 5626 5627 5628 5629 5630 5630 5631 5631 5631 5631 5630
5449 5454 5460 5467 5474 5485 5497 5503 5508 5516 5527 5534 5539 5544 5549 5554 5561 5569 5571 5575 5579 5584 5589 5593 5596 5600 5603 5606 5608 5610 5612 5614 5615 5616 5617 5619 5620 5620 5621 5621 5621 5621 5621 5620
5440 5447 5453 5458 5467 5481 5487 5491 5499 5508 5517 5522 5527 5533 5538 5544 5550 5555 5560 5565 5569 5574 5579 5583 5587 5590 5593 5596 5598 5601 5603 5605 5605 5607 5608 5609 5610 5611 5611 5612 5612 5611 5611 5610
5432 5439 5445 5451 5462 5471 5474 5481 5489 5497 5504 5510 5516 5522 5528 5534 5540 5545 5550 5555 5560 5565 5569 5573 5577 5581 5584 5586 5589 5591 5593 5594 5595 5597 5598 5600 5600 5601 5602 5602 5602 5601 5601 5600
5423 5430 5435 5443 5452 5459 5465 5471 5478 5486 5493 5499 5506 5512 5518 5524 5530 5536 5541 5546 5551 5555 5559 5563 5567 5571 5574 5577 5579 5581 5583 5584 5586 5587 5589 5590 5591 5591 5592 5592 5592 5591 5590 5589
5415 5422 5427 5434 5444 5450 5457 5463 5470 5476 5484 5490 5496 5503 5509 5515 5521 5527 5532 5537 5541 5546 5550 5554 5557 5561 5564 5567 5569 5571 5573 5575 5576 5578 5579 5580 5581 5581 5582 5582 5581 5581 5580 5579
5409 5415 5421 5427 5436 5441 5448 5455 5460 5467 5474 5481 5487 5494 5500 5506 5513 5518 5523 5528 5532 5536 5540 5544 5548 5551 5554 5557 5559 5562 5563 5565 5567 5568 5569 5570 5571 5571 5572 5572 5571 5570 5569 5567